AIC27M VOBL-LSZH

Flight info

Callsign AIC27M
Flight time N/A
Altitude 34000
Route OPAMO7B OPAMO W56 AGELA G208 BBB B342 EXOLU M638 KARKU/N0492F360 M638 IGANU P518 PARET G208 KEBUD L124 SODOK L713 PEGOS T216 DAR/N0491F280 G208 ROVAD/N0483F360 Y11 IKA/N0479F380 A647 RUS R661 MIVAK M715 ZAJ/N0484F280 G208 GETOB/N0482F380 G208 OTENA L124 TUDNU G781 BONAM UT366 VAN UT367 ESEPO UL852 NEGEM Q6 ERDOM Y520 UTEKA/N0476F400 DCT TUVAR DCT PODET DCT DEGUM DCT GEDSO/N0487F300 Z408 NIGEB
Aircraft B77L/H-SDE1E2E3FGHIJ2J3J4J5M1RWXY/LB1D1

Departure

Time 2026-05-05 10:59
Airport Kempegowda International Airport Bengaluru (VOBL)

Arrival

Time N/A
Airport Zürich Airport (LSZH)
Time Latitude Longitude Altitude Speed Heading
2026-05-05 10:39 13.20071 77.71743 2968 ft 0 kts 158°
2026-05-05 10:50 13.20077 77.71741 2941 ft 4 kts 160°
2026-05-05 10:50 13.20103 77.71736 2930 ft 4 kts 180°
2026-05-05 10:50 13.20130 77.71735 2930 ft 4 kts 175°
2026-05-05 10:51 13.20156 77.71730 2930 ft 4 kts 155°
2026-05-05 10:51 13.20176 77.71715 2930 ft 4 kts 119°
2026-05-05 10:51 13.20182 77.71699 2930 ft 0 kts 90°
2026-05-05 10:53 13.20182 77.71715 2932 ft 10 kts 88°
2026-05-05 10:54 13.20228 77.71776 2932 ft 12 kts 18°
2026-05-05 10:54 13.20311 77.71786 2931 ft 12 kts
2026-05-05 10:54 13.20393 77.71786 2929 ft 12 kts
2026-05-05 10:54 13.20476 77.71789 2934 ft 12 kts
2026-05-05 10:55 13.20519 77.71851 2929 ft 12 kts 92°
2026-05-05 10:55 13.20517 77.71938 2928 ft 12 kts 90°
2026-05-05 10:55 13.20517 77.72025 2926 ft 12 kts 91°
2026-05-05 10:55 13.20516 77.72112 2925 ft 12 kts 89°
2026-05-05 10:56 13.20517 77.72200 2929 ft 12 kts 91°
2026-05-05 10:56 13.20554 77.72271 2928 ft 8 kts 26°
2026-05-05 10:56 13.20555 77.72271 2928 ft 0 kts 24°
2026-05-05 10:57 13.20561 77.72273 2928 ft 5 kts 19°
2026-05-05 10:58 13.20625 77.72278 2928 ft 11 kts 358°
2026-05-05 10:58 13.20672 77.72255 2928 ft 4 kts 305°
2026-05-05 10:58 13.20686 77.72193 2930 ft 20 kts 274°
2026-05-05 10:58 13.20691 77.71803 2938 ft 97 kts 269°
2026-05-05 10:59 13.20701 77.70815 2950 ft 179 kts 271°
2026-05-05 10:59 13.20707 77.69363 3261 ft 213 kts 271°
2026-05-05 10:59 13.20726 77.67825 3728 ft 223 kts 280°
2026-05-05 10:59 13.21435 77.66402 4032 ft 233 kts 324°
2026-05-05 11:00 13.22771 77.65490 4591 ft 234 kts 319°
2026-05-05 11:00 13.23709 77.64046 4935 ft 258 kts 294°
2026-05-05 11:00 13.24459 77.62299 5428 ft 271 kts 298°
2026-05-05 11:00 13.25354 77.60572 6267 ft 273 kts 301°
2026-05-05 11:01 13.26306 77.58872 6872 ft 278 kts 302°
2026-05-05 11:01 13.27289 77.57164 7490 ft 285 kts 302°
2026-05-05 11:01 13.28316 77.55395 8161 ft 291 kts 302°
2026-05-05 11:01 13.29524 77.53739 8813 ft 291 kts 321°
2026-05-05 11:02 13.31293 77.52756 9497 ft 291 kts 348°
2026-05-05 11:02 13.33299 77.52681 10235 ft 291 kts 11°
2026-05-05 11:02 13.35300 77.53023 10769 ft 296 kts 358°
2026-05-05 11:02 13.37291 77.52506 11358 ft 297 kts 339°
2026-05-05 11:03 13.39230 77.51690 11929 ft 304 kts 339°
2026-05-05 11:03 13.41192 77.50890 12723 ft 303 kts 340°
2026-05-05 11:03 13.43176 77.50111 13354 ft 308 kts 340°
2026-05-05 11:03 13.45185 77.49348 13844 ft 311 kts 340°
2026-05-05 11:04 13.47245 77.48585 13914 ft 318 kts 341°
2026-05-05 11:04 13.49333 77.47828 13907 ft 318 kts 341°
2026-05-05 11:04 13.51413 77.47083 13908 ft 316 kts 341°
2026-05-05 11:04 13.53512 77.46338 13908 ft 314 kts 341°
2026-05-05 11:05 13.55571 77.45610 13989 ft 325 kts 341°
2026-05-05 11:05 13.57782 77.44833 14135 ft 347 kts 341°
2026-05-05 11:05 13.60137 77.44006 14237 ft 368 kts 341°
2026-05-05 11:05 13.62628 77.43132 14391 ft 387 kts 341°
2026-05-05 11:06 13.65208 77.42226 14839 ft 396 kts 341°
2026-05-05 11:06 13.67844 77.41302 15362 ft 402 kts 341°
2026-05-05 11:06 13.70505 77.40368 15975 ft 406 kts 340°
2026-05-05 11:06 13.73192 77.39425 16501 ft 412 kts 340°
2026-05-05 11:07 13.75921 77.38468 17042 ft 417 kts 340°
2026-05-05 11:07 13.78687 77.37497 17571 ft 421 kts 340°
2026-05-05 11:07 13.81474 77.36519 18162 ft 425 kts 340°
2026-05-05 11:07 13.84285 77.35532 18625 ft 429 kts 340°
2026-05-05 11:08 13.87125 77.34535 19078 ft 433 kts 340°
2026-05-05 11:08 13.89989 77.33529 19503 ft 437 kts 340°
2026-05-05 11:08 13.92883 77.32512 19913 ft 442 kts 340°
2026-05-05 11:08 13.95806 77.31484 20376 ft 445 kts 339°
2026-05-05 11:09 13.98712 77.30463 20826 ft 448 kts 339°
2026-05-05 11:09 14.01668 77.29424 21260 ft 451 kts 339°
2026-05-05 11:09 14.04652 77.28374 21684 ft 454 kts 339°
2026-05-05 11:09 14.07658 77.27316 22095 ft 458 kts 339°
2026-05-05 11:10 14.10682 77.26252 22503 ft 461 kts 339°
2026-05-05 11:10 14.13740 77.25175 22896 ft 464 kts 339°
2026-05-05 11:10 14.16807 77.24095 23275 ft 467 kts 339°
2026-05-05 11:10 14.19891 77.23009 23609 ft 470 kts 339°
2026-05-05 11:11 14.22994 77.21916 23955 ft 472 kts 339°
2026-05-05 11:11 14.26103 77.20821 24326 ft 472 kts 339°
2026-05-05 11:11 14.29220 77.19723 24675 ft 474 kts 339°
2026-05-05 11:11 14.32356 77.18617 24954 ft 477 kts 339°
2026-05-05 11:12 14.35495 77.17509 25259 ft 479 kts 339°
2026-05-05 11:12 14.38656 77.16394 25569 ft 481 kts 339°
2026-05-05 11:12 14.41829 77.15274 25882 ft 483 kts 339°
2026-05-05 11:12 14.44983 77.14160 26176 ft 485 kts 339°
2026-05-05 11:13 14.48184 77.13030 26477 ft 487 kts 339°
2026-05-05 11:13 14.51394 77.11896 26761 ft 489 kts 339°
2026-05-05 11:13 14.54622 77.10755 27062 ft 491 kts 339°
2026-05-05 11:13 14.57860 77.09610 27336 ft 493 kts 339°
2026-05-05 11:14 14.61109 77.08455 27627 ft 494 kts 339°
2026-05-05 11:14 14.64353 77.07272 27927 ft 496 kts 339°
2026-05-05 11:14 14.67607 77.06069 28180 ft 497 kts 339°
2026-05-05 11:14 14.69766 77.05268 28355 ft 499 kts 339°
2026-05-05 11:15 14.74148 77.03642 28670 ft 501 kts 339°
2026-05-05 11:15 14.76326 77.02837 28828 ft 502 kts 339°
2026-05-05 11:15 14.79618 77.01620 29064 ft 504 kts 339°
2026-05-05 11:15 14.82932 77.00398 29294 ft 506 kts 339°
2026-05-05 11:16 14.86198 76.99194 29491 ft 507 kts 339°
2026-05-05 11:16 14.89524 76.97968 29720 ft 508 kts 339°
2026-05-05 11:16 14.92859 76.96737 29974 ft 508 kts 339°
2026-05-05 11:16 14.96185 76.95510 30242 ft 507 kts 339°
2026-05-05 11:17 14.99509 76.94282 30514 ft 506 kts 339°
2026-05-05 11:17 15.02824 76.93058 30781 ft 506 kts 339°
2026-05-05 11:17 15.06134 76.91834 31041 ft 506 kts 339°
2026-05-05 11:17 15.09451 76.90608 31301 ft 505 kts 339°
2026-05-05 11:18 15.12737 76.89313 31553 ft 504 kts 334°
2026-05-05 11:18 15.15805 76.87655 31799 ft 503 kts 327°
2026-05-05 11:18 15.18713 76.85640 32091 ft 501 kts 321°
2026-05-05 11:18 15.21373 76.83328 32491 ft 496 kts 315°
2026-05-05 11:19 15.23860 76.80844 32716 ft 497 kts 314°
2026-05-05 11:19 15.26328 76.78327 32912 ft 498 kts 314°
2026-05-05 11:19 15.28798 76.75803 33167 ft 498 kts 314°
2026-05-05 11:19 15.31270 76.73293 33446 ft 497 kts 314°
2026-05-05 11:20 15.33747 76.70796 33710 ft 498 kts 315°
2026-05-05 11:20 15.38747 76.65792 33784 ft 500 kts 315°
2026-05-05 11:21 15.39558 76.64983 33784 ft 499 kts 315°